Location: Collamer Heights
(42.9775°N, 73.7856°W)
Time: 02:38:18
(UTC+00:00)

Daily predictions for brighter satellites

Satellite Brightness Start Highest point End
(mag) Time Altitude Azimuth Time Altitude Azimuth Time Altitude Azimuth
Cosmos 2227 4.1 00:01:34 10° SSW 00:07:16 69° ESE 00:08:38 51° NE
Cosmos 2221 2.4 00:03:10 10° N 00:07:28 84° W 00:11:46 10° S
USA 238 DEB 3.8 00:01:51 10° S 00:08:12 49° ESE 00:08:55 47° E
USA 238 3.8 00:02:00 10° S 00:08:19 49° ESE 00:08:58 47° E
Atlas Centaur 2 3.7 00:07:09 10° SW 00:10:37 20° S 00:11:28 19° SSE
ADEOS Rocket 3.3 00:04:12 10° NNE 00:11:02 87° ESE 00:18:31 10° SSW
Cosmos 1934 Rocket 4.1 00:05:24 10° SSE 00:10:26 49° ESE 00:10:26 49° ESE
Cosmos 1000 Rocket 4.3 00:05:30 10° N 00:11:44 83° E 00:18:00 10° S
Cosmos 2239 Rocket 4.4 00:09:03 10° S 00:15:21 81° E 00:21:43 10° N
Cosmos 1603 3.5 00:12:37 10° NNW 00:18:19 74° ENE 00:18:40 71° E
Timation 1 Rocket 4.3 00:13:48 10° S 00:19:30 63° ESE 00:19:30 63° ESE
ATLAS 5 CENTAUR R/B 4.1 00:18:33 10° NNW 00:23:57 59° NE 00:47:08 10° SE
Cosmos 2263 Rocket 2.1 00:21:50 10° SSW 00:26:46 68° SSE 00:26:46 68° SSE
Cosmos 1535 Rocket 4.3 00:23:05 10° S 00:29:20 74° E 00:29:53 69° NE
ISS -0.8 00:28:30 10° NW 00:29:20 14° NW 00:29:20 14° NW
DELTA 2 R/B (1) 4.4 00:27:16 10° W 00:32:28 40° SSW 00:33:00 39° S
Cosmos 44 Rocket 3.8 00:30:22 10° SW 00:34:50 55° WNW 00:34:50 55° WNW
Cosmos 407 Rocket 4.2 00:33:36 10° NNW 00:37:17 46° NNW 00:37:17 46° NNW
NOSS 3-3 (A) 4.5 00:34:14 10° NNW 00:41:35 61° NE 00:41:35 61° NE
NOSS 3-3 (C) 4.5 00:34:20 10° NNW 00:41:39 61° NE 00:41:39 61° NE
Cosmos 1943 3.8 00:44:05 10° NNW 00:48:14 51° NNW 00:48:14 51° NNW
BREEZE-M DEB (TANK) 4.5 00:45:40 10° WNW 00:55:11 50° NNW 00:55:11 50° NNW
Ariane Rocket 4.4 00:52:43 10° SSW 00:57:22 36° W 01:02:04 10° NNW
ATLAS 3B R/B 4.3 08:29:35 25° NNE 08:29:43 25° NE 08:35:13 10° E
CZ-3 R/B 4.3 08:30:23 47° SSW 08:33:59 50° S 08:44:47 10° ESE
CENTAUR R/B 3.9 08:47:21 40° N 08:49:16 46° NE 08:57:32 10° ESE
NOSS 3-2 (A) 4.2 08:52:14 69° E 08:52:14 69° E 08:59:57 10° SE
USA 215 4.4 08:47:51 10° ENE 08:53:29 32° NNE 08:53:30 32° NNE
Cosmos 2344 3.7 09:01:00 62° NNE 09:01:00 62° NNE 09:07:42 10° NE
Lacrosse 5 rocket 4.4 09:14:53 11° NNE 09:14:53 11° NNE 09:15:07 10° NNE
Cosmos 2322 Rocket 4.2 09:11:46 10° SSE 09:16:17 25° ESE 09:20:51 10° NE
Cosmos 2263 Rocket 3.2 09:18:37 39° NNE 09:19:41 43° ENE 09:25:02 10° SE
ATLAS 2AS CENTAUR R/B 3.1 09:18:14 54° S 09:20:12 74° ESE 09:28:12 10° NE
USA 238 DEB 3.8 09:32:01 63° SSW 09:32:01 63° SSW 09:38:39 10° SSE
USA 238 3.8 09:32:05 64° SSW 09:32:05 64° SSW 09:38:46 10° SSE
Meteor 1-21 Rocket 4.4 09:31:14 65° NNE 09:32:01 76° E 09:37:57 10° SSE
ALOS 3.9 09:33:00 10° NNE 09:37:13 33° E 09:41:23 10° SSE
Cosmos 972 Rocket 4.1 09:44:37 85° NW 09:44:45 87° WSW 09:50:09 10° SSE
Gbstr 26 Del rocket 4.2 09:47:27 52° SW 09:49:25 81° SE 09:57:20 10° ENE
FENGYUN 3A 4.5 09:49:38 10° NNE 09:54:54 50° E 10:00:09 10° S
SL-8 Rocket 4.2 09:51:20 10° N 09:57:30 68° E 10:03:37 10° SSE
STARLINK 1068 4.4 09:59:14 43° ENE 09:59:14 43° ENE 10:01:51 10° NE
SL-16 R/B 2.5 09:52:48 10° SSW 09:58:24 66° ESE 10:04:02 10° NNE
Genesis I 3.9 10:00:06 51° SE 10:00:06 51° SE 10:03:02 10° SE
Cosmos 2360 Rocket 4.1 09:56:43 10° SSE 10:01:32 30° ESE 10:06:23 10° NE
Cosmos 1328 4.2 10:02:26 47° NNE 10:03:19 60° E 10:07:13 10° SSE
Cosmos 1908 3.9 09:59:49 10° S 10:03:38 54° E 10:07:28 10° NNE
Cosmos 2181 Rocket 4.0 09:57:44 10° S 10:03:58 80° E 10:10:19 10° N
Okean O Rocket 3.5 10:00:37 10° NE 10:04:35 31° E 10:08:29 10° SSE
STARLINK 1060 4.0 10:05:54 51° NE 10:05:54 51° NE 10:08:48 10° NE
Cosmos 923 Rocket 3.9 10:05:12 65° W 10:05:28 66° WNW 10:10:47 10° NNE
Cosmos 2058 Rocket 3.6 10:03:16 10° S 10:07:34 58° E 10:11:52 10° NNE
Cosmos 1980 Rocket 3.2 10:09:22 30° NNW 10:09:22 30° NNW 10:13:02 10° N
STARLINK 1030 3.9 10:08:57 54° NE 10:08:57 54° NE 10:11:57 10° NE
RESURS DK-1 3.7 10:05:36 10° S 10:09:27 39° ESE 10:13:20 10° NE
Lacrosse 5 1.9 10:09:32 42° SSW 10:11:17 78° SE 10:16:23 10° NE
Transit 2A Rocket 4.5 10:12:07 63° NNW 10:12:07 63° NNW 10:16:02 10° NNE
STARLINK 1020 3.7 10:12:37 59° NNE 10:12:37 59° NNE 10:15:48 10° NE
CZ-4B R/B 4.5 10:08:46 10° NNE 10:13:58 41° E 10:19:02 10° SSE
Cosmos 1726 Rocket 3.4 10:10:23 10° SSW 10:14:48 74° W 10:19:14 10° N
Cosmos 1606 Rocket 4.5 10:16:34 34° NNW 10:16:34 34° NNW 10:19:12 10° N
STARLINK 1034 3.6 10:15:41 61° NNE 10:15:41 61° NNE 10:18:58 10° NE
COSMOS 2455 3.4 10:15:32 36° NW 10:15:32 36° NW 10:20:51 10° NNE
Abrixas rocket 4.2 10:17:21 19° SSE 10:17:21 19° SSE 10:18:32 10° SSE
Cosmos 2341 Rocket 3.9 10:09:58 10° NNW 10:16:08 64° W 10:22:15 10° S
STARLINK-29 4.2 10:17:39 37° NNE 10:17:53 38° NNE 10:21:12 10° E
Meteor 1-16 Rocket 4.2 10:12:05 10° SSW 10:17:58 71° W 10:23:48 10° N
STARLINK-52 4.3 10:19:42 35° NNE 10:20:02 36° NNE 10:23:18 10° E
COSMO-SKYMED 1 2.4 10:16:26 10° S 10:20:45 72° WSW 10:22:27 36° NNW
ATLAS 3B R/B 2.6 10:16:52 24° NW 10:21:16 90° NE 10:28:14 10° SSE
Cosmos 2228 3.3 10:22:19 48° NW 10:22:19 48° NW 10:25:58 10° N
STARLINK 1033 3.4 10:22:30 61° NNW 10:22:30 61° NNW 10:26:03 10° NE
NOSS 3-2 (C) 4.2 10:20:10 30° WNW 10:23:58 54° WSW 10:32:08 10° SSE
ADEOS Rocket 4.0 10:21:10 10° SE 10:26:16 42° ENE 10:31:41 10° N
Cosmos 158 Rocket 3.7 10:22:57 10° SSW 10:27:49 83° WNW 10:32:47 10° NNE
Orbus 7S? 3.6 10:27:24 49° WNW 10:28:23 81° SW 10:35:15 10° SE
STARLINK-60 2.9 10:30:31 74° NW 10:30:47 86° NE 10:34:08 10° SE
Cosmos 1703 3.2 10:31:00 41° NW 10:32:07 61° W 10:35:59 10° S
Cosmos 864 Rocket 4.4 10:27:58 10° N 10:34:13 84° W 10:40:30 10° S
USA 215 3.4 10:29:21 10° ESE 10:35:50 70° NE 10:40:51 18° NW
USA 32 4.1 10:31:20 10° NNW 10:36:25 52° W 10:41:29 10° SSW
NOSS 3-4 (A) 3.6 10:33:34 28° WSW 10:36:28 50° NW 10:42:40 10° NNE
NOSS 3-4 (C) 3.6 10:33:36 28° WSW 10:36:34 51° NW 10:42:46 10° NNE
STARLINK 1035 3.6 10:38:09 43° NW 10:38:15 43° NNW 10:41:39 10° NE
PAYLOAD B 4.2 10:33:22 10° NNE 10:39:01 89° WNW 10:44:37 10° SSW
CENTAUR R/B 3.3 10:34:34 20° NW 10:40:19 55° WSW 10:48:46 10° SSE
Cosmos 2218 Rocket 3.9 10:34:11 10° NNW 10:40:31 69° W 10:46:46 10° S
BREEZE M DEB (TANK) 2.7 10:41:13 44° NW 10:41:42 50° NNW 10:46:38 10° ENE
STARLINK 1027 3.8 10:42:22 38° NW 10:42:39 38° NNW 10:46:00 10° NE
Meteor 2-10 4.4 10:39:15 10° SW 10:44:23 40° WNW 10:49:22 10° N
OE (NEXTSAT) 4.3 10:43:41 44° W 10:44:38 73° NNW 10:48:09 10° ENE
STARLINK 1045 4.4 10:40:56 10° SSW 10:44:55 51° SE 10:48:57 10° ENE
METEOR-M 4.1 10:40:31 10° N 10:45:47 59° WNW 10:51:01 10° SSW
STARLINK 1044 3.9 10:46:53 35° WNW 10:47:45 42° NNW 10:51:23 10° NE
STARLINK 1028 4.1 10:48:46 25° NNW 10:48:46 25° NNW 10:51:02 10° NE
STARLINK 1021 4.1 10:49:00 25° NNW 10:49:00 25° NNW 10:51:15 10° NE
STARLINK 1019 4.1 10:49:15 25° NNW 10:49:15 25° NNW 10:51:27 10° NE
STARLINK 1012 4.1 10:49:25 25° NNW 10:49:25 25° NNW 10:51:41 10° NE
STARLINK 1010 4.1 10:49:40 25° NNW 10:49:40 25° NNW 10:51:56 10° NE
STARLINK 1026 4.1 10:49:52 25° NNW 10:49:52 25° NNW 10:52:09 10° NE
STARLINK 1013 4.1 10:50:05 25° NNW 10:50:05 25° NNW 10:52:23 10° NE
STARLINK 1050 4.2 10:45:58 10° SW 10:50:02 58° SE 10:54:06 10° ENE
STARLINK 1009 4.1 10:50:18 25° NNW 10:50:18 25° NNW 10:52:37 10° NE
STARLINK 1015 4.1 10:50:31 25° NNW 10:50:31 25° NNW 10:52:49 10° NE
STARLINK 1016 4.1 10:50:45 25° NNW 10:50:45 25° NNW 10:53:03 10° NE
STARLINK 1008 4.1 10:50:56 25° NNW 10:50:56 25° NNW 10:53:15 10° NE
USA 116 3.9 10:46:38 10° S 10:51:08 59° WSW 10:55:07 10° NNW
STARLINK 1025 4.1 10:51:23 25° NNW 10:51:23 25° NNW 10:53:42 10° NE
STARLINK 1017 4.1 10:51:36 25° NNW 10:51:36 25° NNW 10:53:56 10° NE
STARLINK 1023 4.1 10:51:48 25° NNW 10:51:48 25° NNW 10:54:10 10° NE
STARLINK 1007 4.1 10:52:01 24° NNW 10:52:01 24° NNW 10:54:23 10° NE
STARLINK 1048 4.1 10:52:14 24° NNW 10:52:14 24° NNW 10:54:36 10° NE
Cosmos 1340 Rocket 4.4 10:48:33 10° SSE 10:52:10 37° E 10:55:48 10° NNE
STARLINK 1049 4.1 10:52:28 24° NNW 10:52:28 24° NNW 10:54:51 10° NE
Cosmos 1959 Rocket 4.5 10:46:23 10° NNW 10:52:22 56° W 10:58:22 10° SSW
STARLINK 1051 4.1 10:52:40 24° NNW 10:52:40 24° NNW 10:55:02 10° NE
EXPRESS MD2 4.2 10:52:36 20° NNW 10:52:59 20° N 10:54:53 10° NE
Cosmos 1680 Rocket 4.1 10:49:35 17° WSW 10:53:05 34° WNW 10:57:56 10° N
Lacrosse 5 rocket 3.5 10:50:31 11° NNW 10:53:30 19° NNE 10:56:43 10° ENE
SJ-12 4.5 10:50:53 10° N 10:54:34 33° WNW 10:58:14 10° SW
STARLINK 1055 4.0 10:50:53 10° SW 10:54:58 64° SE 10:59:05 10° ENE
STARLINK 1031 4.0 10:55:23 29° WNW 10:56:33 37° NNW 11:00:02 10° NE
Meteor 1-11 4.3 10:51:16 10° NNW 10:56:45 56° W 11:02:17 10° S
Meteor 2-12 Rocket 4.4 10:50:59 10° N 10:57:09 88° WSW 11:03:16 10° S
STARLINK 1022 3.9 10:55:50 10° SW 10:59:56 70° SE 11:04:04 10° ENE
Cosmos 2322 Rocket 2.4 10:54:31 10° SW 10:59:59 49° WNW 11:05:32 10° NNE
STARLINK 1024 4.1 10:58:54 26° WNW 11:00:15 35° NNW 11:03:43 10° NE
Cosmos 1371 Rocket 4.3 10:55:24 11° NNW 11:00:18 48° WSW 11:05:24 10° S
Cosmos 2058 4.2 10:57:43 10° N 11:01:45 43° ENE 11:05:46 10° SSE
Cosmos 2263 Rocket 3.0 11:00:21 18° WNW 11:03:23 29° WSW 11:08:12 10° SSW
STARLINK 1042 3.8 11:00:46 10° SW 11:04:53 76° SE 11:09:02 10° ENE
NOAA 6 4.0 11:00:15 10° N 11:05:24 64° WNW 11:10:31 10° SSW
CZ-4B DEB 4.4 11:00:10 10° N 11:05:28 47° WNW 11:10:42 10° SW
STARLINK 1032 4.2 11:05:02 22° WNW 11:06:39 32° NNW 11:10:03 10° NE
Cosmos 2366 rocket 4.3 11:03:08 10° NNW 11:09:07 44° W 11:15:03 10° SSW
STARLINK 1056 3.7 11:05:44 10° SW 11:09:51 82° SE 11:14:01 10° NE
STARLINK 1014 4.4 11:09:15 19° NW 11:10:04 21° NNW 11:12:31 10° NNE
Cosmos 1420 Rocket 4.1 11:04:53 10° NNW 11:10:14 86° ENE 11:15:33 10° SSE
STARLINK 1011 4.3 11:08:36 20° WNW 11:10:24 31° NNW 11:13:48 10° NE
ATLAS 2AS CENTAUR R/B 3.7 11:05:45 14° W 11:11:55 35° NW 11:19:05 10° NNE
STARLINK 1036 4.3 11:11:52 19° WNW 11:13:49 30° NNW 11:17:11 10° NE
ALOS 3.1 11:10:36 10° N 11:14:31 27° WNW 11:18:24 10° SW
STARLINK 1054 3.6 11:10:41 10° SW 11:14:49 89° SSE 11:18:59 10° NE
Cosmos 1844 Rocket 2.9 11:09:30 10° NNW 11:15:10 76° ENE 11:20:50 10° SSE
Cosmos 1812 Rocket 3.5 11:11:12 10° S 11:15:35 89° WNW 11:20:01 10° N
Helios 1A Rocket 3.0 11:12:53 10° N 11:16:57 57° WNW 11:21:00 10° SSW
STARLINK 1062 3.6 11:15:37 10° SW 11:19:46 85° NW 11:23:56 10° NE
Cosmos 2333 Rocket 3.5 11:14:23 10° S 11:19:52 46° ESE 11:25:21 10° NE
STARLINK 1047 4.5 11:18:25 16° WNW 11:20:40 28° NNW 11:23:58 10° NE
STARLINK 1037 4.5 11:20:17 15° WNW 11:22:39 28° NNW 11:25:56 10° NE
Cosmos 1300 2.8 11:19:03 10° SSW 11:22:45 50° W 11:26:29 10° N
Cosmos 1437 2.6 11:20:52 10° NNW 11:23:52 58° W 11:26:50 10° S
STARLINK 1053 3.6 11:20:40 10° WSW 11:24:48 79° NW 11:28:58 10° NE
H-2A R/B 2.7 11:22:54 10° N 11:26:47 66° WNW 11:30:36 10° SSW
STARLINK 1061 3.6 11:25:39 10° WSW 11:29:47 73° NW 11:33:56 10° NE
FALCON 9 DEB 3.7 11:27:02 13° WNW 11:29:57 45° SW 11:33:19 10° SSE
CZ-4 R/B 3.9 11:28:41 10° NE 11:32:19 27° E 11:35:53 10° SSE
STARLINK 1067 3.6 11:30:39 10° WSW 11:34:46 67° NNW 11:38:54 10° NE
Cosmos 1455 3.7 11:32:13 10° SSE 11:35:52 41° E 11:39:32 10° NNE
YAOGAN 6 3.2 11:36:10 10° NNE 11:39:40 60° E 11:43:06 10° S
STARLINK 1058 3.7 11:35:35 10° WSW 11:39:41 63° NNW 11:43:48 10° NE
Okean O Rocket 2.6 11:37:06 10° N 11:40:48 26° WNW 11:44:28 10° WSW
Cosmos 1174 3.6 11:36:49 10° SSW 11:40:54 87° WNW 11:44:17 10° NNE
AQUARIUS 4.2 11:37:29 10° N 11:41:58 65° WNW 11:46:24 10° SSW
CZ-2C R/B 4.5 11:37:31 10° SE 11:42:05 30° ENE 11:46:45 10° N
SL-16 R/B 3.4 11:38:43 10° W 11:43:01 22° NW 11:47:21 10° N
Cosmos 1048 Rocket 4.1 11:38:27 10° SSW 11:43:44 88° ESE 11:48:59 10° NNE
STARLINK 1043 3.7 11:40:37 10° WSW 11:44:42 58° NNW 11:48:48 10° NE
Cosmos 2360 Rocket 2.6 11:39:59 10° SW 11:45:20 42° WNW 11:50:44 10° NNE
Okean 3 Rocket 4.3 11:41:02 10° N 11:45:34 62° E 11:50:03 10° SSE
Cosmos 2333 4.3 11:40:50 10° SSW 11:46:37 79° WNW 11:52:26 10° NNE
RESURS DK-1 3.7 11:44:29 10° WSW 11:47:38 21° NW 11:50:49 10° N
Cosmos 2322 3.7 11:42:18 10° SSW 11:47:56 68° WNW 11:53:36 10° NNE
Cosmos 2219 Rocket 2.5 11:43:18 10° SSW 11:48:56 77° ESE 11:54:38 10° NNE
Okean-O 2.9 11:44:36 10° NNE 11:49:04 75° ESE 11:53:29 10° S
STARLINK 1065 3.8 11:45:36 10° WSW 11:49:40 54° NNW 11:53:45 10° NE
